风云三号B星 (FENGYUN 3B)

导读

FENGYUN 3B(风云三号B星)是中国于2010年11月4日发射的极轨气象卫星,运行在约836公里高度的太阳同步轨道,设计寿命3年,实际在轨稳定运行超10年,是我国目前在轨业务运行寿命最长的极轨气象卫星。 它与风云三号A星组网探测,将全球观测时效从12小时提升至4.5小时,显著提升天气预报精度与时效。搭载微波湿度计、紫外臭氧总量探测仪等载荷,可在数值预报、气候变化研究、灾害监测和空间天气监测等领域发挥关键作用,标志着我国极轨气象技术实现重大跨越。

Basic Information
目录编号:
37214
目录名称:
FENGYUN 3B
国际标识:
2010-059A
轨道中心:
EARTH
卫星名称:
风云三号B星
卫星全名:
风云三号B星 (FENGYUN 3B)
卫星状态:
在轨 (已飞行5745 天)
发射日期:
2010-11-04 UTC
国别 :
中国 (CN)
星等 :
--
Orbit Information
数据来源 国际轨道数据 AOE轨道数据
星历时间 2026-07-27T23:11:42+0800
11小时前
查看轨道信息
2026-07-28T00:00:00+0800
11小时前
查看轨道信息
半长轴 7220.958km 7220.962km
偏心率 0.0023145 0.002324
轨道倾角 98.961° 98.961°
近地点辐角 73.066° 73.725°
升交点赤经 254.814° 254.849°
平近点角 89.038° 259.114°
近地点 826.108km 826.043km
远地点 859.534km 859.607km
周期 101.778分钟 101.778分钟
每日圈数 14.148506 14.148493
Detailed Information
平衡模式:
三轴稳定
覆盖范围:
亚洲
运营商:
夏威夷科学技术博物馆
运营商所在国:
美国
制造商(研发单位):
上海航天技术研究院
制造商所在国:
中国
使用方式:
暂无
Satellite Introduction
风云气象卫星系列(FENGYUN Meteorological Satellite)是中国于1977年开始研制的气象卫星系列,目前发射了风云一号、风云二号、风云三号、风云四号等卫星系列。其中,风云二号系列、风云四号系列为风云静止卫星,风云一号系列、风云三号系列为风云极轨卫星。该卫星仍在工作。
2D Orbit Map
3D Orbit Map
Orbit Altitude Analysis Chart
Orbit Inclination Analysis Chart
Orbit Comprehensive Analysis Chart
View Comprehensive Chart